Flag for Germany Weather past 2 weeks in Offenburg, Baden-Württemberg, Germany

Now
70 °F

Partly sunny.


Feels Like: 70 °F
Forecast: 55 / 69 °F
Wind: 3 mph from Northwest

Location: Lahr - CAN-AFB

Current Time: Sep 30, 2014 at 3:16:19 PM

Latest Report: Sep 30, 2014 at 2:50 PM


Visibility: N/A

Pressure: 30.30 "Hg

Humidity: 73%

Dew point: 61 °F

Location of OffenburgLocation

Historic Weather in Offenburg — Graph

°F

Offenburg temperature yesterday

Maximum temperature yesterday: 77 °F (at 1:50 PM)
Minimum temperature yesterday: 55 °F (at 7:20 AM)
Average temperature yesterday: 69 °F

Past Weeks' High & Low Weather Summary

 TemperatureHumidityPressure
High77 °F (Sep 19, 2:50 PM)100% (Sep 16, 7:50 AM)30.36 "Hg (Sep 16, 7:50 AM)
Low41 °F (Sep 23, 7:50 AM)42% (Sep 28, 5:50 PM)29.83 "Hg (Sep 17, 3:50 PM)
Average64 °F76%30.09 "Hg
* Reported Sep 15 1:20 PM — Sep 30 1:50 PM, Offenburg, Weather by CustomWeather, © 2014

Note: Actual official high and low records may vary slightly from our data, if they occured in-between our weather recording intervals... More about our weather records

Advertising

Offenburg weather history for previous 24 hours

 ConditionsComfort  
Time TempWeatherWind HumidityBarometerVisibility
1:50 PM
Sep 30
68 °FPartly sunny.2 mph73%30.30 "HgN/A
1:20 PM68 °FPartly sunny.2 mph73%30.30 "HgN/A
12:50 PM68 °FBroken clouds.2 mph73%30.30 "HgN/A
12:20 PM66 °FPartly sunny.2 mph83%30.30 "HgN/A
11:50 AM66 °FPartly sunny.2 mph78%30.30 "HgN/A
11:20 AM66 °FBroken clouds.2 mph78%30.30 "HgN/A
10:50 AM64 °FPartly sunny.2 mph83%30.30 "HgN/A
10:20 AM64 °FPartly sunny.1 mph83%30.30 "HgN/A
9:50 AM63 °FPartly sunny.1 mph88%30.30 "HgN/A
9:20 AM63 °FPartly sunny.5 mph88%30.30 "HgN/A
8:50 AM63 °FPartly sunny.2 mph94%30.30 "HgN/A
8:20 AM61 °FPassing clouds.2 mph94%30.30 "HgN/A
7:50 AM61 °FPassing clouds.2 mph94%30.27 "HgN/A
6:50 AM61 °FPassing clouds.1 mph88%30.27 "HgN/A
9:50 PM
Sep 29
66 °FClear.6 mph78%30.27 "Hg10 mi
9:20 PM66 °FClear.3 mph78%30.27 "Hg10 mi
8:50 PM68 °FClear.6 mph73%30.27 "Hg10 mi
8:20 PM66 °FClear.3 mph78%30.27 "Hg10 mi
7:50 PM68 °FPassing clouds.5 mph73%30.24 "HgN/A
7:20 PM70 °FPassing clouds.5 mph69%30.24 "HgN/A
6:50 PM68 °FPassing clouds.3 mph78%30.24 "HgN/A
6:20 PM73 °FPassing clouds.2 mph53%30.24 "HgN/A
5:50 PM73 °FPassing clouds.1 mph53%30.24 "HgN/A
4:50 PM73 °FPassing clouds.5 mph53%30.24 "HgN/A
4:20 PM75 °FPassing clouds.6 mph54%30.24 "HgN/A
3:50 PM75 °FPassing clouds.6 mph50%30.24 "HgN/A
3:20 PM75 °FPassing clouds.5 mph54%30.21 "HgN/A
Weather by CustomWeather, © 2014

See weather overviewHow to use our weather pages